NOAA 16 DEB, 41201

Orbit data source: Space-Track

NOAA 16 DEB, 41201 is space debris in SSO originally from a launch on Thu, 21 Sep 2000 UTC launched from the Air Force Western Test Range (AFWTR). Debris objects in space refer to the collection of defunct objects orbiting the Earth. Examples of debris include non-operational satellites, rocket bodies, and fragments generated from explosions, collisions, or faulty payload assembly.

Loading next visibility...
Identifier
41201, 2000-055DE
Orbit
SSO
Country
Flag of USUS
Related business
Manufacturer
Unknown
Mission
Spacecraft
Bus & Motor
Unknown
Mass
Unknown
Launch date (UTC)
2000-09-21 (25 years ago)
Launch vehicle
Unknown
Launch site
Air Force Western Test Range (AFWTR)
Object type
Payload
Rocket body
Debris
Shape & HBR
Unknown shape, 0.1 m
Radar Cross Section
Small (<0.1 m²)

Expand to show TLE details & history
Last TLE update: 4 days ago

TLE from 4 days ago
0 NOAA 16 DEB
1 41201U 00055DE  25284.04437302  .00002651  00000-0  14597-2 0  9994
2 41201  98.7757 321.5946 0040546 314.8880  44.9002 14.12021138504847
Epoch: 2025-10-11T01:03Z
TLE epoch observation values (Epoch: 2025-10-11T01:03:53.828Z)
Latitude
-0.00009°
Longitude
-74.26118°
Altitude
834.654 km
Speed
7.446 km/s
True Right ascension
21h 26m 22s
True Declination
0° 00' 00"
Sunlit
Object was in full shadow at epoch
Visualization orbit readout
Latitude
Unknown
Longitude
Unknown
Altitude
Unknown
Speed
Unknown
Apparent Right ascension
Unknown
Apparent Declination
Unknown
Sunlit
N/A
Visualization observer readout
Local Sidereal Time
10:05:48
Azimuth
Unknown
Elevation
Unknown
Doppler factor
Unknown
Orbital elements
Apogee altitude
878.942 km
Perigee altitude
820.33 km
Semi-major axis
7,227.773 km
Eccentricity
0.00405
Inclination
98.7757°
RAAN
321.5946°
Arg. of periapsis
314.888°
True anomaly
45.22934°
Mean anomaly
44.9002°
Eccentric anomaly
45.06465°
Mean motion
3.53213 °/min
Orbital period
101.92 mins
BSTAR
0.0014597
Loading maneuver chart data...
Computing Atmospheric mass density...
Loading historical data...
Loading historical data...
Loading historical data...
Loading historical data...
Loading historical data...
Loading historical data...
Loading historical data...

Documentation

Showing up to 5 results
|